Regional Weather Roundup
Issued by NWS

Home | Current Version | Previous Version | Graphics & Text | Print | Product List | Glossary On
Versions: 1 2 3 4 5 6 7 8 9 10 11 12 13 14 15 16 17 18 19 20 21 22 23 24 25 26 27 28 29 30 31 32 33 34 35 36 37 38 39 40 41 42 43 44 45 46 47 48 49 50
000
ASUS43 KMKX 210400
RWRWI

WISCONSIN REGIONAL WEATHER ROUNDUP
NATIONAL WEATHER SERVICE MILWAUKEE/SULLIVAN WI
1100 PM CDT WED AUG 20 2014

NOTE: "FAIR" INDICATES FEW OR NO CLOUDS BELOW 12,000 FEET WITH NO
SIGNIFICANT WEATHER AND/OR OBSTRUCTIONS TO VISIBILITY.

WIZ001-002-006>008-014>016-023>028-210500-
NORTHWEST WISCONSIN

CITY           SKY/WX    TMP DP  RH WIND       PRES   REMARKS
SUPERIOR ARPT  PTCLDY    62  61  97 NE7       29.94R
ASHLAND        CLOUDY    60  58  92 CALM      29.96R
HAYWARD        PTCLDY    58  57  97 CALM      29.96R
SIREN          PTCLDY    65  62  87 E3        29.93S
RICE LAKE      MOCLDY    64  61  90 E5        29.95S
LADYSMITH      MOCLDY    63  61  93 E3        29.98R
EAU CLAIRE     NOT AVBL
MENOMONIE      MOCLDY    68  64  86 E3        29.92S
NEW RICHMOND   MOCLDY    68  64  86 E6        29.91S
OSCEOLA        PTCLDY    68  66  93 E7        29.93S
$$

WIZ003>005-009-010-017-018-210500-
NORTH CENTRAL WISCONSIN

CITY           SKY/WX    TMP DP  RH WIND       PRES   REMARKS
WOODRUFF       CLOUDY    64  60  86 CALM      29.98R
RHINELANDER    CLOUDY    60  59  96 CALM      29.99R
EAGLE RIVER    CLOUDY    63  61  95 CALM      29.98R
LAND O LAKES   CLOUDY    62  60  93 CALM      29.99S
PHILLIPS       PTCLDY    58  58 100 CALM      29.97R
TOMAHAWK         N/A     56  55  96 CALM      29.98R FOG
MEDFORD        PTCLDY    58  58 100 E5        29.96S
MERRILL        PTCLDY    59  58  99 CALM      29.97S
$$

WIZ029-030-035-036-043>047-210500-
CENTRAL WISCONSIN

CITY           SKY/WX    TMP DP  RH WIND       PRES   REMARKS
WAUSAU         CLEAR     62  61  96 CALM      29.95S
MOSINEE        CLEAR     61  61 100 CALM      29.97S
MARSHFIELD     MOCLDY    64  61  90 E5        29.95S
STEVENS POINT  PTCLDY    61  59  94 CALM      29.96S
WAUPACA        PTCLDY    65  63  93 CALM      29.95S
WAUTOMA        NOT AVBL
WISC RAPIDS    PTCLDY    66  62  87 E3        29.96S
CAMP DOUGLAS   NOT AVBL
$$

WIZ011>013-019>022-031-037>040-048>050-210500-
NORTHEAST WISCONSIN

CITY           SKY/WX    TMP DP  RH WIND       PRES   REMARKS
ANTIGO         CLOUDY    60  58  94 CALM      29.98R
STURGEON BAY   CLOUDY    64  61  88 S5        29.96R
GREEN BAY      CLEAR     62  61  96 S3        29.95R
MANITOWOC      FOG       64  64 100 CALM      29.96R VSB 3/4
APPLETON       MOCLDY    66  61  82 CALM      29.95R
CLINTONVILLE   CLEAR     61  59  94 CALM      29.95R
OSHKOSH        PTCLDY    64  63  96 S5        29.95R
$$

WIZ032>034-041-042-053>061-210500-
SOUTHWEST WISCONSIN

CITY           SKY/WX    TMP DP  RH WIND       PRES   REMARKS
LA CROSSE      PTCLDY    75  67  76 E9        29.89S
SPARTA         MOCLDY    69  64  83 CALM      29.93R
VIROQUA        FAIR      70  70 100 S3        29.94R
BOSCOBEL       MOCLDY    69  66  90 CALM      29.92R
PRAIRIE DU CHI MOCLDY    69  65  88 E3        29.90S
PLATTEVILLE    FAIR      70  66  89 CALM      29.94R
$$

WIZ056-057-062-063-064-067-068-210500-
SOUTH CENTRAL WISCONSIN

CITY           SKY/WX    TMP DP  RH WIND       PRES   REMARKS
BARABOO/DELLS  MOCLDY    70  64  83 E6        29.93S
LONE ROCK      NOT AVBL
WATERTOWN      PTCLDY    67  65  93 E6        29.93R
MADISON        PTCLDY    72  67  84 CALM      29.93R
MIDDLETON      FAIR      73  69  88 N8        29.93R
MONROE         MOCLDY    72  68  88 W5        29.94R
JANESVILLE     PTCLDY    73  68  83 CALM      29.94R
$$

WIZ051-052-058>065-066-070>072-210500-
SOUTHEAST WISCONSIN

CITY           SKY/WX    TMP DP  RH WIND       PRES   REMARKS
MILWAUKEE      MOCLDY    68  64  87 E5        29.95R
WAUKESHA       MOCLDY    64  61  88 NE6       29.96R
MILWAUKEE/TIMM PTCLDY    68  63  83 CALM      29.96R
RACINE         CLOUDY    70  65  84 E9        29.97R
BURLINGTON     PTCLDY    68  66  94 NE3       29.95R
KENOSHA        PTCLDY    71  65  81 E9        29.95R
FOND DU LAC    MOCLDY    67  63  87 E3        29.96R
SHEBOYGAN      PTCLDY    63  62  97 CALM      29.96R FOG
WEST BEND      MOCLDY    63  61  94 CALM      29.96R
JUNEAU         PTCLDY    66  38  36 E5        29.95S
$$

LSZ147-162-210500-
LAKE SUPERIOR

STATION/POSITION TIME  TEMP    WIND        PRES    WAVE
                       AIR SEA DIR/SP/G            HT/PER
                 (UTC) (F)     (DEG/KT/KT) (MB)    (FT/S)
W MID LAKE BUOY  0250   59 59   90/  4/  4 1014.6R   0
DEVILS ISLAND    0300   63      90/  7/  7 1014.3R
PORT WING        0300   65     170/  1/  2 1013.9
SAXON HARBOR     0300   63        CALM     1013.9F
$$

LMZ867-665-643>646-210500-
LAKE MICHIGAN

STATION/POSITION TIME  TEMP    WIND        PRES    WAVE
                       AIR SEA DIR/SP/G            HT/PER
                 (UTC) (F)     (DEG/KT/KT) (MB)    (FT/S)
N MID LAKE BUOY  0250   63 62  130/  2/  2 1013.3S   0
NORTHPORT PIER   0300   63     200/  3/  6 1013.9R
SISTER BAY       0326   64        CALM       N/A
KEWAUNEE LAKESHO 0300   64      CALM  /  1 1013.1R
SHEBOYGAN LAKESH 0300   66 64   60/  2/  2 1014.1R
ATWATER BUOY     0300   69      80/  6/  6 1014.8R
MILWAUKEE LAKESH 0300   68      60/  5/  7   N/A
S MID LAKE BUOY  0250   68 68   60/  6/  6 1013.6R   0
KENOSHA   LAKESH 0300   71      80/  6/  7 1013.2R
$$

TC  - TEMPERATURE IN CELSIUS
VSB - VISIBILITY IN STATUTE MILES
WCI - WIND CHILL INDEX
HX  - HEAT INDEX



USA.gov is the U.S. government's official web portal to all federal, state and local government web resources and services.